Location: Ammerl�gen
(47.2167°N, 9.6000°E)
Time: 16:39:28
(UTC+00:00)

Cosmos 2315 Rocket - Pass Details

Date: 21 April 2021
Orbit: 967 x 1001 km, 82.9° (Epoch: 06 May)

Event Time Altitude Azimuth Distance (km) Brightness Sun altitude
Exits shadow 22:48:28 76° 270° (W) 1,025 4.0 -30.2°
Maximum altitude 22:48:33 77° 279° (W) 1,024 4.0 -30.2°
Drops below altitude 10° 22:54:57 10° 6° (N) 2,777 7.2 -30.3°
Sets 22:57:30 0° 8° (N) 3,734 8.1 -30.4°
